风云一号D星 (FENGYUN 1D)

导读

FENGYUN 1D(风云一号D星)是中国研制发射的第一代太阳同步轨道气象卫星,于北京时间2002年5月15日8时成功发射入轨。它搭载了多通道可见光红外扫描辐射计,可获取全球气象要素、云层覆盖和地表特征等遥感数据,广泛服务于天气预报、气候预测、自然灾害监测及海洋、农业、航空等多领域,为中国防灾减灾和经济社会发展提供了可靠的气象支撑,是中国早期风云气象卫星组网观测的重要组成部分。

基本信息
目录编号:
27431
目录名称:
FENGYUN 1D
国际标识:
2002-024B
轨道中心:
EARTH
卫星名称:
风云一号D星
卫星全名:
风云一号D星 (FENGYUN 1D)
卫星状态:
在轨 (已飞行8885 天)
发射日期:
2002-05-15 UTC
国别 :
中国 (CN)
星等 :
--
该卫星已列入 空间交会检测服务 Space Conjunction Data Service (SCDS) ,当前飞行风险评估等级: 无高风险
轨道信息
数据来源 国际轨道数据 AOE轨道数据
星历时间 2026-09-11T11:20:44+0800
13小时前
查看轨道信息
2026-09-06T23:00:00+0800
5天前
查看轨道信息
半长轴 7236.71km 7236.711km
偏心率 0.0015382 0.0015636
轨道倾角 98.944° 98.945°
近地点辐角 5.036° 17.012°
升交点赤经 304.043° 299.553°
平近点角 355.096° 116.960°
近地点 847.441km 847.258km
远地点 869.705km 869.89km
周期 102.111分钟 102.111分钟
每日圈数 14.102336 14.102332
详细信息
平衡模式:
自旋稳定
覆盖范围:
亚洲
运营商:
夏威夷科学技术博物馆
运营商所在国:
美国
制造商(研发单位):
上海航天技术研究院
制造商所在国:
中国
使用方式:
暂无
卫星简介
风云气象卫星系列(FENGYUN Meteorological Satellite)是中国于1977年开始研制的气象卫星系列,目前发射了风云一号、风云二号、风云三号、风云四号等卫星系列。其中,风云二号系列、风云四号系列为风云静止卫星,风云一号系列、风云三号系列为风云极轨卫星。该卫星已退役。
2D轨道图
3D轨道图
轨道高度分析图
轨道倾角分析图
轨道综合分析图
查看轨道综合分析图
与全量物体交会距离演化趋势
与全量物体交会风险概率演化趋势